Location: Hiram
(41.3130°N, 81.1440°W)
Time: 16:41:57
(UTC-04:00)

Daily predictions for brighter satellites

Satellite Brightness Start Highest point End
(mag) Time Altitude Azimuth Time Altitude Azimuth Time Altitude Azimuth
Resurs 1-3 4.2 21:09:55 10° S 21:14:15 59° W 21:18:36 10° NNW
Cosmos 405 Rocket 2.8 21:11:58 10° S 21:15:38 56° E 21:19:24 10° NNE
Cosmos 1500 4.2 21:13:15 10° NNW 21:16:53 48° W 21:20:30 10° SSW
DEBRIS 3.4 21:14:46 10° SW 21:17:47 67° SE 21:26:48 10° ENE
Meteor 1-19 Rocket 4.3 21:14:26 10° S 21:20:10 64° E 21:25:49 10° NNE
Cosmos 923 Rocket 4.1 21:16:33 10° SSW 21:21:53 85° ESE 21:27:12 10° NNE
Tiangong 2 1.0 21:20:30 10° WSW 21:23:39 67° SSE 21:26:48 10° E
Cosmos 1441 Rocket 3.8 21:21:05 10° SSE 21:24:30 36° E 21:27:57 10° NNE
ERS-1 Rocket 3.7 21:22:08 10° SE 21:26:41 36° ENE 21:31:16 10° N
Resurs 01 Rocket 3.2 21:23:56 10° SSW 21:28:01 36° W 21:32:08 10° NNW
Cosmos 1455 Rocket 4.0 21:23:50 10° NNW 21:28:03 50° W 21:32:14 10° SSW
CENTAUR R/B 3.4 21:20:07 10° NW 21:28:04 76° WSW 21:36:29 10° SSE
NOSS 2-2 (D) 4.3 21:27:07 10° SW 21:31:03 56° NW 21:35:36 10° NNE
SPOT 5 4.2 21:30:32 10° ESE 21:33:38 20° ENE 21:36:46 10° NNE
Meteor 1-29 2.8 21:31:22 10° NNE 21:34:44 68° E 21:38:04 10° S
Nadezhda 1 Rocket 4.2 21:30:40 10° S 21:36:53 60° E 21:43:11 10° NNE
COSMOS 2406 3.5 21:36:30 10° SSW 21:42:13 74° WNW 21:47:57 10° NNE
Cosmos 2082 Rocket 3.6 21:41:51 11° SE 21:45:09 18° E 21:48:50 10° ENE
Cosmos 1743 3.6 21:45:43 10° NNW 21:49:29 49° W 21:53:15 10° SSW
Cosmos 2154 Rocket 4.2 21:45:39 10° N 21:51:55 56° E 21:57:43 12° SSE
CZ-4B DEB 3.3 21:49:10 10° S 21:52:04 52° W 21:55:01 10° NNW
CRYOSAT 2 4.4 21:49:13 10° SSE 21:54:00 67° E 21:58:49 10° N
Cosmos 2112 Rocket 4.2 21:49:14 10° SSW 21:54:26 76° WNW 21:59:39 10° NNE
Cosmos 1238 Rocket 4.1 21:49:30 10° S 21:56:15 80° E 22:02:43 10° N
Aureole 3 Rocket 4.0 21:51:59 10° SSW 21:58:15 67° W 22:02:42 10° N
ISS -3.0 21:55:17 10° WSW 21:58:31 55° NNW 22:01:46 10° NE
ASTEX 1 3.4 21:55:34 10° S 22:00:28 85° E 22:05:24 10° N
Cosmos 1624 Rocket 4.2 21:56:24 10° NNW 22:01:38 59° ENE 22:05:36 17° SE
OAO 2 Rocket 3.9 21:57:19 10° WSW 22:01:54 39° S 22:05:08 18° SE
H-2A R/B 3.2 21:59:49 15° ESE 22:02:57 28° ENE 22:07:11 10° N
Helios 1A 4.4 22:00:41 10° SSW 22:04:33 35° W 22:08:27 10° NNW
Cosmos 2369 4.4 21:59:21 10° N 22:04:48 42° ENE 22:08:44 18° ESE
Cosmos 1697 Rocket 4.2 22:01:00 10° N 22:05:25 23° NE 22:09:12 12° E
SL-27 R/B 3.6 22:03:40 10° SW 22:07:12 47° WNW 22:10:45 10° N
Cosmos 2228 4.2 22:03:50 10° NNE 22:07:29 26° ENE 22:09:27 19° ESE
Cosmos 967 Rocket 4.5 22:01:37 10° SSW 22:07:44 60° ESE 22:13:53 10° NE
Cosmos 1939 Rocket 4.2 22:05:30 10° SSW 22:09:03 35° W 22:12:38 10° NNW
YAOGAN 6 3.1 22:06:34 11° S 22:09:51 54° W 22:13:18 10° NNW
Cosmos 921 Rocket 3.7 22:05:50 10° N 22:10:05 40° ENE 22:12:33 21° SE
Cosmos 1666 4.0 22:08:35 10° NNW 22:12:04 38° W 22:15:33 10° SSW
Meteor 2-9 Rocket 4.5 22:07:59 10° NNW 22:13:26 67° W 22:19:01 10° S
Meteor 1-4 Rocket 4.4 22:11:20 10° NNE 22:13:35 16° ENE 22:14:27 15° E
SL-08 RB Rocket 4.2 22:12:25 21° SE 22:15:00 43° ENE 22:19:15 10° N
Okean 1-7 Rocket 4.0 22:13:06 10° SSW 22:17:31 64° W 22:22:01 10° N
Cosmos 1892 Rocket 3.7 22:15:23 18° SSE 22:18:30 54° E 22:22:48 10° NNE
Intercosmos 24 3.8 22:16:40 10° NNW 22:20:28 73° W 22:22:54 19° S
Cosmos 2056 Rocket 3.4 22:15:46 10° NNW 22:20:58 80° ENE 22:24:17 22° SSE
Cosmos 1833 Rocket 3.3 22:19:02 19° SSE 22:22:13 34° ESE 22:27:15 10° NE
Cosmos 1437 Rocket 2.7 22:19:05 10° N 22:22:56 87° W 22:25:16 23° S
Cosmos 2341 Rocket 4.0 22:18:24 10° N 22:24:46 73° E 22:29:28 19° SSE
MetOp-A 4.2 22:23:24 17° S 22:27:33 82° WSW 22:32:57 10° NNW
Cosmos 1606 Rocket 3.5 22:26:17 10° N 22:30:36 84° W 22:33:14 23° S
PSLV R/B 3.8 22:29:50 10° W 22:32:44 35° SSW 22:32:59 35° S
Cosmos 839 Rocket 4.4 22:28:04 10° NNW 22:34:39 82° ENE 22:39:48 24° SE
Cosmos 2218 Rocket 4.4 22:30:17 10° N 22:36:11 46° ENE 22:39:18 26° SE
Cosmos 1066 Rocket 4.5 22:34:16 25° SSE 22:37:08 48° E 22:42:31 10° NNE
Cosmos 1726 Rocket 3.5 22:36:01 10° N 22:40:20 79° W 22:42:37 27° S
Cosmos 1025 Rocket 4.4 22:37:52 10° SW 22:41:50 37° WNW 22:45:49 10° N
USA 245 2.2 22:42:20 68° WSW 22:42:25 69° WSW 22:44:46 10° NNW
Cosmos 1515 3.9 22:40:58 21° SSW 22:43:24 70° W 22:47:12 10° N
COSMOS 2487 2.3 22:43:44 31° SSW 22:45:19 85° ESE 22:48:54 10° NNE
CZ-3A R/B 0.9 22:46:04 10° WSW 22:48:50 42° W 22:48:50 42° W
CARTOSAT-1 4.3 22:50:14 32° ESE 22:51:21 38° ENE 22:55:22 10° N
Cosmos 1452 Rocket 3.6 22:47:42 10° NNW 22:52:56 64° ENE 22:55:04 35° SE
Cosmos 1980 Rocket 3.3 22:48:49 10° N 22:53:52 32° ENE 22:56:23 23° E
Landsat 7 3.9 22:52:27 37° SE 22:54:12 62° ENE 22:58:55 10° N
SPOT 1/Viking Rocket 3.5 22:51:40 31° SSE 22:54:15 87° WSW 22:59:27 10° NNW
Cosmos 2058 Rocket 3.1 22:50:32 10° N 22:54:57 76° W 22:56:51 34° S
Cosmos 2181 Rocket 4.1 22:49:26 14° S 22:55:02 79° W 23:01:21 10° N
Cosmos 1766 4.2 22:55:52 10° NNE 22:59:23 31° ENE 22:59:35 31° E
Tiangong 2 1.4 22:57:17 10° W 23:00:26 64° N 23:00:58 52° NE
ARGOS 3.7 22:58:32 23° S 23:01:49 54° W 23:07:09 10° NNW
Cosmos 2322 Rocket 4.3 23:00:24 10° N 23:03:52 16° NE 23:07:11 10° E
Lacrosse 5 rocket 4.3 23:01:45 10° NNW 23:04:21 15° NNE 23:06:59 10° NE
USA 267 4.3 23:01:29 10° ENE 23:05:41 24° ESE 23:05:41 24° ESE
Terra 1.9 23:07:56 44° SE 23:09:14 61° ENE 23:13:56 10° N
SPOT 5 3.7 23:09:28 24° SSW 23:11:27 37° W 23:15:31 10° NNW
H-2A R/B 2.2 23:15:12 52° SE 23:16:08 69° ENE 23:20:39 10° N
Cosmos 1812 Rocket 3.7 23:13:33 10° N 23:17:58 56° E 23:18:32 51° ESE
Cosmos 864 Rocket 4.4 23:11:50 10° N 23:18:10 82° E 23:20:40 39° SSE
IGS 5A 3.4 23:18:14 62° SE 23:18:46 72° ENE 23:22:55 10° N
Cosmos 468 4.4 23:17:25 37° S 23:19:31 81° ESE 23:24:50 10° NNE
Meteor 2-21 4.3 23:16:24 10° N 23:22:28 86° W 23:24:52 39° S
Meteor 2-21 Rocket 4.3 23:20:28 10° N 23:26:33 83° E 23:28:37 44° SSE
Cosmos 1626 Rocket 3.5 23:26:20 53° SSW 23:27:15 75° W 23:31:35 10° N
Spot 4 4.2 23:26:55 44° ESE 23:27:43 49° ENE 23:32:21 10° N
Cosmos 2082 Rocket 2.6 23:23:35 13° SW 23:28:39 63° WNW 23:34:16 10° NNE
ATLAS CENTAUR R/B 3.7 23:27:55 10° NNE 23:29:29 12° NE 23:30:40 11° ENE
Cosmos 1805 4.1 23:27:33 10° N 23:30:53 38° ENE 23:30:53 38° ENE
SL-19 R/B 4.0 23:26:20 10° NNE 23:31:42 83° ESE 23:33:15 47° S
Meteor 1-22 Rocket 4.1 23:27:49 10° NNW 23:33:08 79° W 23:34:40 48° S
ISS -0.7 23:33:21 10° NW 23:35:34 17° NNW 23:37:48 10° NNE
USA 229 DEB 3.9 23:28:54 10° NNW 23:36:01 67° NE 23:39:05 37° ESE
USA 229 4.0 23:29:00 10° NNW 23:36:08 67° NE 23:39:12 37° ESE
Cosmos 1825 Rocket 4.1 23:41:25 44° ENE 23:41:25 44° ENE 23:45:06 10° NNE
Cosmos 2366 rocket 4.2 23:35:05 10° NNW 23:41:08 63° W 23:43:33 37° SSW
H-2A R/B 3.2 23:40:27 26° SW 23:42:14 34° W 23:46:47 10° NNW
Cosmos 158 Rocket 3.9 23:46:06 53° SSW 23:47:25 88° WNW 23:52:49 10° NNE
Meteor 1-4 Rocket 4.1 23:45:42 10° NNW 23:48:46 27° W 23:48:46 27° W
Cosmos 1697 Rocket 3.0 23:44:16 10° NNW 23:49:44 56° WSW 23:50:57 46° SSW
Cosmos 2360 4.2 23:44:55 10° NNW 23:50:39 74° ENE 23:51:48 56° SE
CZ-4C R/B 3.8 23:52:05 47° NNE 23:52:05 47° NNE 23:54:52 10° N
